Погода в Татарке

Россия / Омская область     53°57′41″N   75°03′42″E
темп.,
°C
ветер,
м/с
пор.,
м/с
влажн.,
%
обл.,
%
осадки,
мм/ч
давл.,
гПа
погр.,
м
9 марта, вт
вт900:00−13юз6139078 0.0 1020310
03:00−15юз513890 0.0 1021272
06:00−16ююз6138818 0.0 1021278
09:00−15ююз7148861 0.0 1021357
12:00−11юз7128955 0.0 1021444
15:00−8юз7128784 0.0 1020519
18:00−9ююз6138778 0.0 1019407
21:00−12ююз512889 0.0 1019253
10 марта, ср
ср1000:00−13ююз5118921 0.0 1018200
03:00−13юз479081 0.0 1017143
06:00−13ююз349090 0.0 101660
09:00−11юв3489100 0.0 1014114
12:00−8вюв5787100 0.0 1010317
15:00−7вюв61195100 1.6 1004549
18:00−3юв5997100 5.4 999378
21:00−3з91493100 0.7 1000547
11 марта, чт
чт1100:00−10зюз71492100 0.8 1004446
03:00−12юз5139488 0.0 1006278
06:00−9юз7159089 0.1 1008498
09:00−10зюз8158772 0.0 1010554
12:00−10юз8148436 0.0 1012598
15:00−8ююз712830 0.0 1012648
18:00−8ю4109544 0.2 1010512
21:00−7зюз61192100 1.0 1009824
12 марта, пт
пт1200:00−12зюз8158496 1.1 1011571
03:00−16юз8149198 0.1 1012694
06:00−19юз8168899 0.1 1013536
09:00−19зюз71492100 0.0 1015661
12:00−17зюз81290100 0.1 1018778
15:00−16з81383100 0.1 10201117
18:00−17з51288100 0.1 1021604
21:00−21зюз449553 0.0 102456
13 марта, сб
сб1300:00−23зюз349727 0.0 102741
03:00−24юз34980 0.0 102733
06:00−23юз34998 0.0 102852
09:00−22юз479636 0.0 1029148
12:00−17юз589226 0.0 1030273
15:00−15юз479234 0.0 1030298
18:00−16ююз479535 0.0 1029148
21:00−20ююз45960 0.0 102964